Weather History for KW29 - January, 2013

Change the Weather History Date:

Saturday, January 12, 2013

  Actual Average (KESN) Record (KESN)
Temperature  
Mean Temperature 46 °F -  
Max Temperature 51 °F 37 °F 57 °F (1963)
Min Temperature 41 °F 23 °F 5 °F (1968)
Degree Days  
Heating Degree Days 19    
Moisture  
Dew Point 43 °F    
Average Humidity 94    
Maximum Humidity 100    
Minimum Humidity 76    
Precipitation  
Precipitation 0.00 in - - ()
Sea Level Pressure  
Sea Level Pressure 30.15 in    
Wind  
Wind Speed 2 mph (NW)    
Max Wind Speed 5 mph    
Max Gust Speed -    
Visibility 5 miles    
Events      
Averages and records for this station are not official NWS values.
T = Trace of Precipitation, MM = Missing Value Source: NWS Daily Summary

Daily Weather History Graph

Daily Weather History Graph

Search for Another Location

Airport or City:

Trip Planner

Search our weather history database for the weather conditions in past years. The results will help you decide how hot, cold, wet, or windy it might be!

Date:

Astronomy

Jan. 12, 2013 Rise Set
Actual Time 7:23 AM EST 5:04 PM EST
Civil Twilight 6:54 AM EST 5:33 PM EST
Nautical Twilight 6:21 AM EST 6:06 PM EST
Astronomical Twilight 5:49 AM EST 6:38 PM EST
Moon 7:41 AM EST (1/12) 6:29 PM EST (1/12)
Length of Visible Light 10h 39m
Length of Day
9h 40m
New Moon, 1% of the Moon is Illuminated
Jan 12
New Moon
Jan 18
First Quarter
Jan 26
Full
Feb 3
Last Quarter
Feb 10
New

Hourly Weather History & Observations

Time (EST) Temp. Windchill Dew Point Humidity Pressure Visibility Wind Dir Wind Speed Gust Speed Precip Events Conditions
1:03 AM 42.8 °F 41.1 °F 42.8 °F 100% 30.11 in 1.8 mi West 3.5 mph - N/A   Overcast
1:46 AM 42.8 °F 41.1 °F 42.8 °F 100% 30.12 in 1.8 mi WNW 3.5 mph - N/A   Overcast
2:29 AM 42.8 °F - 42.8 °F 100% 30.13 in 1.0 mi Calm Calm - N/A   Overcast
2:50 AM 42.8 °F 41.1 °F 42.8 °F 100% 30.14 in 1.2 mi NNW 3.5 mph - N/A   Overcast
3:11 AM 42.8 °F 41.1 °F 42.8 °F 100% 30.13 in 0.5 mi North 3.5 mph - N/A   Overcast
3:32 AM 42.8 °F 40.1 °F 42.8 °F 100% 30.13 in 1.0 mi North 4.6 mph - N/A   Overcast
3:54 AM 42.8 °F - 42.8 °F 100% 30.14 in 1.2 mi Calm Calm - N/A   Overcast
4:15 AM 42.8 °F - 42.8 °F 100% 30.13 in 1.2 mi Calm Calm - N/A   Overcast
4:36 AM 42.8 °F - 42.8 °F 100% 30.12 in 1.2 mi Calm Calm - N/A   Overcast
4:58 AM 42.8 °F - 42.8 °F 100% 30.12 in 1.5 mi Calm Calm - N/A   Overcast
5:19 AM 41.0 °F - 41.0 °F 100% 30.14 in 1.5 mi Calm Calm - N/A   Overcast
5:40 AM 42.8 °F - 42.8 °F 100% 30.13 in 1.8 mi Calm Calm - N/A   Overcast
6:44 AM 42.8 °F - 42.8 °F 100% 30.15 in 2.0 mi Calm Calm - N/A   Overcast
7:05 AM 42.8 °F - 42.8 °F 100% 30.15 in 1.8 mi Calm Calm - N/A   Overcast
7:27 AM 42.8 °F - 42.8 °F 100% 30.15 in 1.8 mi Calm Calm - N/A   Overcast
7:48 AM 42.8 °F - 42.8 °F 100% 30.17 in 1.8 mi Calm Calm - N/A   Overcast
8:09 AM 42.8 °F - 42.8 °F 100% 30.17 in 1.5 mi Calm Calm - N/A   Overcast
8:30 AM 42.8 °F - 42.8 °F 100% 30.17 in 1.5 mi Calm Calm - N/A   Overcast
9:13 AM 42.8 °F - 42.8 °F 100% 30.18 in 2.0 mi Calm Calm - N/A   Overcast
9:34 AM 42.8 °F 41.1 °F 42.8 °F 100% 30.17 in 2.0 mi North 3.5 mph - N/A   Overcast
9:55 AM 44.6 °F 43.1 °F 42.8 °F 93% 30.17 in 4.0 mi North 3.5 mph - N/A   Mostly Cloudy
10:17 AM 44.6 °F 43.1 °F 42.8 °F 93% 30.17 in 5.0 mi North 3.5 mph - N/A   Mostly Cloudy
10:38 AM 44.6 °F 43.1 °F 42.8 °F 93% 30.17 in 5.0 mi NNW 3.5 mph - N/A   Mostly Cloudy
10:59 AM 44.6 °F - 42.8 °F 93% 30.17 in 7.0 mi Calm Calm - N/A   Mostly Cloudy
11:21 AM 44.6 °F 43.1 °F 42.8 °F 93% 30.17 in 5.0 mi NW 3.5 mph - N/A   Scattered Clouds
11:42 AM 44.6 °F 42.2 °F 42.8 °F 93% 30.16 in 7.0 mi WNW 4.6 mph - N/A   Scattered Clouds
12:03 PM 44.6 °F 43.1 °F 42.8 °F 93% 30.16 in 10.0 mi NNW 3.5 mph - N/A   Scattered Clouds
12:24 PM 46.4 °F 45.2 °F 42.8 °F 87% 30.15 in 10.0 mi NNW 3.5 mph - N/A   Scattered Clouds
12:46 PM 46.4 °F - 42.8 °F 87% 30.15 in 10.0 mi Calm Calm - N/A   Scattered Clouds
1:07 PM 50.0 °F - 42.8 °F 76% 30.15 in 10.0 mi Calm Calm - N/A   Clear
1:28 PM 50.0 °F - 44.6 °F 82% 30.15 in 10.0 mi Calm Calm - N/A   Clear
1:49 PM 51.8 °F - 44.6 °F 76% 30.14 in 10.0 mi Calm Calm - N/A   Clear
2:11 PM 51.8 °F - 44.6 °F 76% 30.13 in 10.0 mi Calm Calm - N/A   Clear
2:32 PM 51.8 °F - 44.6 °F 76% 30.13 in 10.0 mi Calm Calm - N/A   Clear
2:53 PM 51.8 °F - 44.6 °F 76% 30.14 in 10.0 mi Calm Calm - N/A   Clear
3:14 PM 51.8 °F - 44.6 °F 76% 30.13 in 10.0 mi South 3.5 mph - N/A   Clear
3:36 PM 50.0 °F - 44.6 °F 82% 30.13 in 10.0 mi SSE 3.5 mph - N/A   Clear
3:57 PM 50.0 °F - 44.6 °F 82% 30.13 in 10.0 mi SE 3.5 mph - N/A   Clear
4:18 PM 50.0 °F - 44.6 °F 82% 30.14 in 10.0 mi Calm Calm - N/A   Clear
4:39 PM 50.0 °F - 44.6 °F 82% 30.14 in 10.0 mi West 3.5 mph - N/A   Clear
5:01 PM 44.6 °F 42.2 °F 42.8 °F 93% 30.16 in 7.0 mi West 4.6 mph - N/A   Clear
5:22 PM 44.6 °F - 44.6 °F 100% 30.16 in 5.0 mi Calm Calm - N/A   Clear
5:43 PM 44.6 °F - 44.6 °F 100% 30.16 in 5.0 mi Calm Calm - N/A   Clear
6:04 PM 44.6 °F - 42.8 °F 93% 30.16 in 7.0 mi Calm Calm - N/A   Clear
6:26 PM 44.6 °F - 44.6 °F 100% 30.16 in 5.0 mi Calm Calm - N/A   Clear
6:47 PM 44.6 °F - 42.8 °F 93% 30.16 in 5.0 mi Calm Calm - N/A   Clear
7:08 PM 44.6 °F - 42.8 °F 93% 30.16 in 5.0 mi Calm Calm - N/A   Clear
7:51 PM 44.6 °F 43.1 °F 42.8 °F 93% 30.15 in 5.0 mi East 3.5 mph - N/A   Clear
8:12 PM 44.6 °F - 42.8 °F 93% 30.15 in 5.0 mi Calm Calm - N/A   Clear
8:33 PM 44.6 °F - 42.8 °F 93% 30.15 in 5.0 mi Calm Calm - N/A   Clear
8:54 PM 44.6 °F - 42.8 °F 93% 30.15 in 4.0 mi Calm Calm - N/A   Clear
9:16 PM 42.8 °F - 42.8 °F 100% 30.14 in 4.0 mi Calm Calm - N/A   Clear
9:37 PM 42.8 °F - 42.8 °F 100% 30.15 in 4.0 mi Calm Calm - N/A   Clear
9:58 PM 42.8 °F - 42.8 °F 100% 30.14 in 3.0 mi Calm Calm - N/A   Clear
10:20 PM 42.8 °F - 42.8 °F 100% 30.14 in 2.5 mi Calm Calm - N/A   Clear
10:41 PM 41.0 °F - 41.0 °F 100% 30.14 in 2.5 mi Calm Calm - N/A   Clear
11:02 PM 42.8 °F - 42.8 °F 100% 30.15 in 2.0 mi Calm Calm - N/A   Clear
11:23 PM 41.0 °F - 41.0 °F 100% 30.15 in 2.0 mi Calm Calm - N/A   Clear
11:45 PM 41.0 °F - 41.0 °F 100% 30.14 in 2.0 mi Calm Calm - N/A   Clear